| time (UTC) | temp F | wind direction | speed MPH | gust MPH | rain 1hr in | rain 24hr in | rain mn in | humidity % | barometer mb |
| 20260906093014 | 73 | 350 | 4.0 | 0.0 | 0.00 | 0.00 | 0.00 | 70 | 1002.6 |
| 20260906091505 | 73 | 333 | 3.0 | 0.0 | 0.00 | 0.00 | 0.00 | 67 | 1002.5 |
| 20260906090043 | 73 | 325 | 3.0 | 0.0 | 0.00 | 0.00 | 0.00 | 67 | 1002.5 |
| 20260906084541 | 73 | 313 | 5.0 | 0.0 | 0.00 | 0.00 | 0.00 | 67 | 1002.7 |
| 20260906083039 | 73 | 207 | 3.0 | 0.0 | 0.00 | 0.00 | 0.00 | 67 | 1002.0 |
| 20260906081517 | 73 | 205 | 3.0 | 0.0 | 0.00 | 0.00 | 0.00 | 65 | 1001.7 |
| 20260906080009 | 73 | 213 | 2.0 | 0.0 | 0.00 | 0.00 | 0.00 | 66 | 1002.0 |
| 20260906074524 | 73 | 128 | 1.0 | 0.0 | 0.00 | 0.00 | 0.00 | 67 | 1002.3 |
| 20260906073053 | 73 | 124 | 2.0 | 0.0 | 0.00 | 0.00 | 0.00 | 67 | 1002.2 |
| 20260906071557 | 73 | 150 | 2.0 | 0.0 | 0.00 | 0.00 | 0.00 | 67 | 1002.1 |
| 20260906070030 | 73 | 205 | 2.0 | 0.0 | 0.00 | 0.00 | 0.00 | 67 | 1002.5 |
| 20260906064553 | 73 | 175 | 2.0 | 0.0 | 0.00 | 0.00 | 0.00 | 66 | 1002.6 |
| 20260906063057 | 73 | 121 | 2.0 | 0.0 | 0.00 | 0.00 | 0.00 | 66 | 1002.7 |
| 20260906061506 | 73 | 99 | 2.0 | 0.0 | 0.00 | 0.00 | 0.00 | 66 | 1002.3 |
| 20260906060010 | 73 | 127 | 3.0 | 0.0 | 0.00 | 0.00 | 0.00 | 65 | 1002.0 |
| 20260906054525 | 74 | 133 | 2.0 | 0.0 | 0.00 | 0.00 | 0.00 | 65 | 1001.7 |
| 20260906053031 | 74 | 140 | 2.0 | 0.0 | 0.00 | 0.00 | 0.00 | 64 | 1001.6 |
| 20260906051553 | 75 | 131 | 2.0 | 0.0 | 0.00 | 0.00 | 0.00 | 62 | 1001.6 |
| 20260906050115 | 75 | 141 | 2.0 | 0.0 | 0.00 | 0.00 | 0.00 | 62 | 1001.5 |
| 20260906044533 | 76 | 185 | 2.0 | 0.0 | 0.00 | 0.00 | 0.00 | 60 | 1001.6 |
| 20260906043056 | 76 | 152 | 2.0 | 0.0 | 0.00 | 0.00 | 0.00 | 59 | 1001.6 |
| 20260906041549 | 77 | 126 | 2.0 | 0.0 | 0.00 | 0.00 | 0.00 | 58 | 1001.6 |
| 20260906040015 | 77 | 145 | 2.0 | 0.0 | 0.00 | 0.00 | 0.00 | 57 | 1002.0 |
| 20260906034519 | 78 | 138 | 2.0 | 0.0 | 0.00 | 0.00 | 0.00 | 56 | 1002.1 |
| 20260906033101 | 79 | 128 | 2.0 | 0.0 | 0.00 | 0.00 | 0.00 | 55 | 1001.8 |
| 20260906033002 | 79 | 147 | 2.0 | 0.0 | 0.00 | 0.00 | 0.00 | 54 | 1001.8 |
| 20260906031509 | 79 | 161 | 3.0 | 0.0 | 0.00 | 0.00 | 0.00 | 52 | 1001.8 |
| 20260906030011 | 81 | 121 | 3.0 | 0.0 | 0.00 | 0.00 | 0.00 | 51 | 1002.2 |
| 20260906024504 | 81 | 109 | 3.0 | 0.0 | 0.00 | 0.00 | 0.00 | 50 | 1001.7 |
| 20260906023029 | 82 | 111 | 3.0 | 0.0 | 0.00 | 0.00 | 0.00 | 48 | 1001.4 |
| 20260906021531 | 83 | 118 | 3.0 | 0.0 | 0.00 | 0.00 | 0.00 | 47 | 1001.1 |
| 20260906020048 | 84 | 107 | 2.0 | 0.0 | 0.00 | 0.00 | 0.00 | 45 | 1001.8 |
| 20260906014544 | 85 | 162 | 1.0 | 0.0 | 0.00 | 0.00 | 0.00 | 43 | 1001.7 |
| 20260906013042 | 86 | 165 | 1.0 | 0.0 | 0.00 | 0.00 | 0.00 | 42 | 1001.5 |
| 20260906011512 | 87 | 102 | 1.0 | 0.0 | 0.00 | 0.00 | 0.00 | 40 | 1001.3 |
| 20260906010016 | 88 | 142 | 2.0 | 0.0 | 0.00 | 0.00 | 0.00 | 39 | 1001.6 |
| 20260906004540 | 88 | 205 | 2.0 | 0.0 | 0.00 | 0.00 | 0.00 | 37 | 1001.0 |
| 20260906003046 | 89 | 117 | 3.0 | 0.0 | 0.00 | 0.00 | 0.00 | 36 | 1000.8 |
| 20260906001503 | 89 | 198 | 4.0 | 0.0 | 0.00 | 0.00 | 0.00 | 35 | 1000.5 |
| 20260906000006 | 90 | 175 | 4.0 | 0.0 | 0.00 | 0.00 | 0.00 | 35 | 1000.5 |
| 20260905234525 | 91 | 135 | 4.0 | 0.0 | 0.00 | 0.00 | 0.00 | 31 | 1000.6 |
| 20260905233050 | 93 | 179 | 5.0 | 0.0 | 0.00 | 0.00 | 0.00 | 29 | 1000.3 |
| 20260905231553 | 96 | 181 | 6.0 | 0.0 | 0.00 | 0.00 | 0.00 | 26 | 1000.1 |
| 20260905230055 | 96 | 181 | 5.0 | 0.0 | 0.00 | 0.00 | 0.00 | 25 | 999.7 |
| 20260905224558 | 96 | 151 | 7.0 | 0.0 | 0.00 | 0.00 | 0.00 | 26 | 999.5 |
| 20260905223052 | 96 | 151 | 6.0 | 0.0 | 0.00 | 0.00 | 0.00 | 28 | 999.4 |
| 20260905221550 | 96 | 142 | 6.0 | 0.0 | 0.00 | 0.00 | 0.00 | 27 | 999.5 |
| 20260905220020 | 96 | 120 | 5.0 | 0.0 | 0.00 | 0.00 | 0.00 | 28 | 999.6 |
| 20260905214523 | 96 | 203 | 6.0 | 0.0 | 0.00 | 0.00 | 0.00 | 27 | 999.6 |
| 20260905213021 | 96 | 148 | 6.0 | 0.0 | 0.00 | 0.00 | 0.00 | 27 | 999.7 |
| 20260905211546 | 95 | 127 | 7.0 | 0.0 | 0.00 | 0.00 | 0.00 | 28 | 1000.0 |
| 20260905210056 | 95 | 102 | 6.0 | 0.0 | 0.00 | 0.00 | 0.00 | 28 | 1000.3 |
| 20260905204543 | 94 | 178 | 6.0 | 0.0 | 0.00 | 0.00 | 0.00 | 30 | 1000.6 |
| 20260905203046 | 93 | 99 | 6.0 | 0.0 | 0.00 | 0.00 | 0.00 | 32 | 1001.2 |
| 20260905201556 | 92 | 203 | 5.0 | 0.0 | 0.00 | 0.00 | 0.00 | 33 | 1001.3 |
| 20260905200020 | 93 | 141 | 6.0 | 0.0 | 0.00 | 0.00 | 0.00 | 33 | 1001.5 |
| 20260905194533 | 92 | 138 | 6.0 | 0.0 | 0.00 | 0.00 | 0.00 | 31 | 1001.5 |
| 20260905193059 | 92 | 168 | 5.0 | 0.0 | 0.00 | 0.00 | 0.00 | 35 | 1001.9 |
| 20260905193001 | 92 | 174 | 5.0 | 0.0 | 0.00 | 0.00 | 0.00 | 35 | 1001.9 |
| 20260905191509 | 92 | 214 | 6.0 | 0.0 | 0.00 | 0.00 | 0.00 | 34 | 1002.0 |
| 20260905190013 | 91 | 147 | 6.0 | 0.0 | 0.00 | 0.00 | 0.00 | 36 | 1002.1 |
| 20260905184530 | 91 | 192 | 4.0 | 0.0 | 0.00 | 0.00 | 0.00 | 37 | 1002.1 |
| 20260905183031 | 89 | 168 | 4.0 | 0.0 | 0.00 | 0.00 | 0.00 | 39 | 1002.4 |
| 20260905181555 | 89 | 164 | 4.0 | 0.0 | 0.00 | 0.00 | 0.00 | 38 | 1002.3 |
| 20260905180029 | 90 | 199 | 4.0 | 0.0 | 0.00 | 0.00 | 0.00 | 38 | 1002.4 |
| 20260905174532 | 90 | 178 | 4.0 | 0.0 | 0.00 | 0.00 | 0.00 | 40 | 1002.4 |
| 20260905173032 | 91 | 151 | 5.0 | 0.0 | 0.00 | 0.00 | 0.00 | 37 | 1002.0 |
| 20260905171600 | 91 | 138 | 4.0 | 0.0 | 0.00 | 0.00 | 0.00 | 37 | 1002.3 |
| 20260905170058 | 90 | 172 | 4.0 | 0.0 | 0.00 | 0.00 | 0.00 | 40 | 1001.9 |
| 20260905164558 | 90 | 162 | 4.0 | 0.0 | 0.00 | 0.00 | 0.00 | 40 | 1001.7 |
| 20260905163007 | 89 | 124 | 4.0 | 0.0 | 0.00 | 0.00 | 0.00 | 39 | 1001.7 |
| 20260905161538 | 87 | 135 | 6.0 | 0.0 | 0.00 | 0.00 | 0.00 | 41 | 1001.8 |
| 20260905160046 | 86 | 172 | 6.0 | 0.0 | 0.00 | 0.00 | 0.00 | 40 | 1001.8 |
| 20260905154552 | 85 | 262 | 7.0 | 0.0 | 0.00 | 0.00 | 0.00 | 42 | 1002.1 |
| 20260905153013 | 84 | 161 | 7.0 | 0.0 | 0.00 | 0.00 | 0.00 | 45 | 1001.8 |
| 20260905151517 | 83 | 188 | 7.0 | 0.0 | 0.00 | 0.00 | 0.00 | 46 | 1001.9 |
| 20260905150043 | 82 | 281 | 8.0 | 0.0 | 0.00 | 0.00 | 0.00 | 48 | 1001.7 |
| 20260905144512 | 80 | 220 | 6.0 | 0.0 | 0.00 | 0.00 | 0.00 | 52 | 1001.8 |
| 20260905143014 | 79 | 205 | 7.0 | 0.0 | 0.00 | 0.00 | 0.00 | 55 | 1001.9 |
| 20260905141525 | 77 | 205 | 5.0 | 0.0 | 0.00 | 0.00 | 0.00 | 56 | 1002.0 |
| 20260905140037 | 76 | 219 | 4.0 | 0.0 | 0.00 | 0.00 | 0.00 | 59 | 1001.7 |
| 20260905134548 | 74 | 251 | 6.0 | 0.0 | 0.00 | 0.00 | 0.00 | 61 | 1002.0 |
| 20260905133032 | 73 | 246 | 7.0 | 0.0 | 0.00 | 0.00 | 0.00 | 62 | 1002.0 |
| 20260905131556 | 72 | 205 | 5.0 | 0.0 | 0.00 | 0.00 | 0.00 | 63 | 1002.3 |
| 20260905130005 | 70 | 185 | 4.0 | 0.0 | 0.00 | 0.00 | 0.00 | 67 | 1001.5 |
| 20260905124512 | 69 | 203 | 4.0 | 0.0 | 0.00 | 0.00 | 0.00 | 69 | 1001.6 |
| 20260905123018 | 69 | 175 | 3.0 | 0.0 | 0.00 | 0.00 | 0.00 | 68 | 1001.6 |
| 20260905121530 | 70 | 182 | 4.0 | 0.0 | 0.00 | 0.00 | 0.00 | 67 | 1001.4 |
| 20260905120037 | 71 | 209 | 5.0 | 0.0 | 0.00 | 0.00 | 0.00 | 65 | 1000.8 |
| 20260905114538 | 70 | 209 | 5.0 | 0.0 | 0.00 | 0.00 | 0.00 | 67 | 1000.7 |
| 20260905113047 | 70 | 213 | 4.0 | 0.0 | 0.00 | 0.00 | 0.00 | 67 | 1000.9 |
| 20260905111554 | 70 | 190 | 3.0 | 0.0 | 0.00 | 0.00 | 0.00 | 65 | 1000.9 |
| 20260905110007 | 71 | 185 | 3.0 | 0.0 | 0.00 | 0.00 | 0.00 | 65 | 1000.9 |
| 20260905104525 | 71 | 190 | 4.0 | 0.0 | 0.00 | 0.00 | 0.00 | 63 | 1000.7 |
| 20260905103018 | 72 | 182 | 2.0 | 0.0 | 0.00 | 0.00 | 0.00 | 62 | 1000.8 |
| 20260905101527 | 72 | 199 | 3.0 | 0.0 | 0.00 | 0.00 | 0.00 | 60 | 1000.4 |
| 20260905100055 | 72 | 162 | 5.0 | 0.0 | 0.00 | 0.00 | 0.00 | 60 | 1000.0 |
| 20260905094519 | 72 | 179 | 5.0 | 0.0 | 0.00 | 0.00 | 0.00 | 59 | 1000.1 |